Weather History for Winner, SD

Change the Weather History Date:

Monday, January 27, 2014

  Actual Average Record
Temperature  
Mean Temperature 5 °F 25 °F  
Max Temperature 12 °F 36 °F 46 °F (2013)
Min Temperature -3 °F 14 °F -3 °F (2014)
Degree Days  
Heating Degree Days 60 40  
Month to date heating degree days 1059 1085  
Since 1 July heating degree days 3900 3791  
Cooling Degree Days 0 0  
Month to date cooling degree days 0 0  
Year to date cooling degree days 0 0  
Moisture  
Dew Point -8 °F    
Average Humidity 57    
Maximum Humidity 75    
Minimum Humidity 38    
Precipitation  
Precipitation T in 0.01 in 0.06 in (2012)
Month to date precipitation 0.02 0.21  
Year to date precipitation 0.02 0.21  
Sea Level Pressure  
Sea Level Pressure 30.48 in    
Wind  
Wind Speed 10 mph (NW)    
Max Wind Speed 18 mph    
Max Gust Speed 24 mph    
Visibility 10 miles    
Events      
T = Trace of Precipitation, MM = Missing Value Source: NWS Daily Summary

Daily Weather History Graph

Daily Weather History Graph

Search for Another Location

Airport:

Trip Planner

Search our weather history database for the weather conditions in past years. The results will help you decide how hot, cold, wet, or windy it might be!

Date:

Astronomy

Jan. 27, 2014 Rise Set
Actual Time 8:00 AM CST 5:44 PM CST
Civil Twilight 7:29 AM CST 6:15 PM CST
Nautical Twilight 6:55 AM CST 6:49 PM CST
Astronomical Twilight 6:21 AM CST 7:23 PM CST
Moon 4:44 AM CST (1/27) 2:30 PM CST (1/27)
Length of Visible Light 10h 45m
Length of Day
9h 44m
Waning Crescent, 14% of the Moon is Illuminated
Jan 27
Waning Crescent
Jan 30
New
Feb 6
First Quarter
Feb 14
Full
Feb 22
Last Quarter

Hourly Weather History & Observations

Time (CST) Temp. Windchill Dew Point Humidity Pressure Visibility Wind Dir Wind Speed Gust Speed Precip Events Conditions
12:45 AM 3.2 °F -14.6 °F -5.8 °F 66% 30.32 in 10.0 mi NW 13.8 mph - N/A   Overcast
12:53 AM 3.0 °F -17.3 °F -4.0 °F 73% 30.43 in 10.0 mi NW 18.4 mph 23.0 mph N/A   Overcast
1:19 AM 3.2 °F -15.9 °F -2.2 °F 78% 30.32 in 5.0 mi NW 16.1 mph - 0.00 in   Overcast
1:35 AM 1.4 °F -17.6 °F -4.0 °F 78% 30.32 in 10.0 mi NW 15.0 mph - 0.00 in   Scattered Clouds
1:53 AM 1.9 °F -16.2 °F -5.1 °F 72% 30.43 in 10.0 mi NNW 13.8 mph - 0.00 in   Clear
2:53 AM 1.0 °F -15.8 °F -7.1 °F 69% 30.46 in 10.0 mi NW 11.5 mph - N/A   Clear
3:53 AM 1.0 °F -18.0 °F -8.0 °F 66% 30.48 in 10.0 mi NW 15.0 mph - N/A   Clear
4:53 AM 1.0 °F -18.0 °F -9.9 °F 60% 30.49 in 10.0 mi NNW 15.0 mph - N/A   Clear
5:53 AM -0.0 °F -20.7 °F -9.9 °F 63% 30.50 in 10.0 mi NNW 17.3 mph - N/A   Clear
6:53 AM -0.9 °F -17.4 °F -9.9 °F 66% 30.51 in 10.0 mi NW 10.4 mph - N/A   Clear
7:53 AM -2.0 °F -17.7 °F -9.9 °F 69% 30.54 in 10.0 mi WNW 9.2 mph - N/A   Clear
8:53 AM -0.0 °F -18.0 °F -9.9 °F 63% 30.55 in 10.0 mi NW 12.7 mph - N/A   Clear
9:53 AM 1.9 °F -15.5 °F -9.0 °F 60% 30.56 in 10.0 mi NNW 12.7 mph - N/A   Clear
10:53 AM 3.0 °F -11.5 °F -9.0 °F 57% 30.56 in 10.0 mi WNW 9.2 mph - N/A   Clear
11:53 AM 5.0 °F -9.1 °F -9.0 °F 52% 30.56 in 10.0 mi NNW 9.2 mph - N/A   Clear
12:53 PM 8.1 °F -7.0 °F -9.0 °F 46% 30.53 in 10.0 mi NW 11.5 mph - N/A   Clear
1:53 PM 9.0 °F -6.6 °F -9.9 °F 42% 30.50 in 10.0 mi NW 12.7 mph 19.6 mph N/A   Clear
2:53 PM 10.0 °F -4.5 °F -11.0 °F 38% 30.49 in 10.0 mi WNW 11.5 mph - N/A   Clear
3:53 PM 10.9 °F -0.8 °F -11.0 °F 37% 30.48 in 10.0 mi NNW 8.1 mph 18.4 mph N/A   Clear
4:53 PM 10.9 °F -2.6 °F -11.0 °F 37% 30.48 in 10.0 mi NW 10.4 mph - N/A   Clear
5:53 PM 7.0 °F 0.1 °F -9.0 °F 48% 30.48 in 10.0 mi North 3.5 mph - N/A   Clear
6:53 PM 3.9 °F -5.3 °F -9.0 °F 55% 30.49 in 10.0 mi NNE 4.6 mph - N/A   Clear
7:53 PM 3.0 °F -4.4 °F -9.0 °F 57% 30.50 in 10.0 mi SSE 3.5 mph - N/A   Clear
8:53 PM 5.0 °F - -9.0 °F 52% 30.51 in 10.0 mi Calm Calm - N/A   Clear
9:53 PM 3.0 °F - -9.0 °F 57% 30.51 in 10.0 mi Calm Calm - N/A   Clear
10:53 PM 1.0 °F -8.7 °F -8.0 °F 66% 30.51 in 10.0 mi SW 4.6 mph - N/A   Clear
11:53 PM 1.0 °F -6.7 °F -9.0 °F 63% 30.51 in 10.0 mi WSW 3.5 mph - N/A   Clear